Meteo Giornale » Osservazioni meteo Francia » Vichy
ore: 20:00 - Osservazioni Meteo Vichy
Lat. 46° 10' N Lon. 3° 24' E Alt. 249 metri s.l.m.
24 °C
Sereno
Temp. 24 Ore
16 °C
26 °C
Nord
1.8 Km/h
Dew point 9 °C
Umidità 38 %
Visibilità 10 Km
Il sole sorge alle ore 07:05
Il sole tramonta alle ore 20:27
| Data e Ora | Cielo e Fenomeni | T °C | DP °C | Um. % | Pres. hPa | Vis. km | Vento km/h | |
|---|---|---|---|---|---|---|---|---|
| Oggi h: 20:00 | Sereno | 24 | 9 | 38 | 1020 | 10 | N 1.8 | |
| Oggi h: 19:30 | Sereno | 24 | 9 | 38 | 1020 | 10 | N 5.5 | |
| Oggi h: 19:00 | Sereno | 25 | 8 | 33 | 1020 | 10 | N 7.4 | |
| Oggi h: 18:30 | Sereno | 26 | 9 | 34 | 1020 | 10 | N 9.3 | |
| Oggi h: 18:00 | Sereno | 26 | 8 | 31 | 1021 | 10 | O 11.1 | |
| Oggi h: 17:30 | Sereno | 26 | 9 | 34 | 1021 | 10 | N 9.3 | |
| Oggi h: 17:00 | Sereno | 25 | 10 | 38 | 1021 | 10 | O/NO 11.1 | |
| Oggi h: 16:30 | Sereno | 25 | 11 | 41 | 1021 | 10 | N 11.1 | |
| Oggi h: 16:00 | Sereno | 25 | 12 | 44 | 1021 | 10 | O/SO 14.8 | |
| Oggi h: 15:30 | Sereno | 25 | 13 | 47 | 1021 | 10 | N 13 | |
| Oggi h: 15:00 | Sereno | 24 | 12 | 47 | 1021 | 10 | O/SO 13 | |
| Oggi h: 14:30 | Sereno | 24 | 12 | 47 | 1021 | 10 | O/SO 14.8 | |
| Oggi h: 14:00 | Molto Nuvoloso | 23 | 14 | 56 | 1021 | 10 | O 13 | |
| Oggi h: 13:30 | Nuvoloso | 24 | 13 | 50 | 1021 | 10 | SO 14.8 | |
| Oggi h: 13:00 | Nuvoloso | 23 | 14 | 56 | 1021 | 10 | O/SO 13 | |
| Oggi h: 12:30 | Molto Nuvoloso | 22 | 13 | 56 | 1021 | 10 | SO 13 | |
| Oggi h: 12:00 | Coperto | 22 | 13 | 56 | 1021 | 10 | SO 9.3 | |
| Oggi h: 11:30 | Coperto | 20 | 13 | 64 | 1021 | 10 | N 5.5 | |
| Oggi h: 11:00 | Coperto | 20 | 13 | 64 | 1021 | 10 | N 5.5 | |
| Oggi h: 10:30 | Sereno | 21 | 13 | 60 | 1021 | 10 | S 13 | |
| Oggi h: 10:00 | Sereno | 20 | 13 | 64 | 1021 | 10 | S 13 | |
| Oggi h: 09:30 | Sereno | 19 | 14 | 72 | 1021 | 10 | S 14.8 | |
| Oggi h: 09:00 | Sereno | 18 | 13 | 72 | 1020 | 10 | S 14.8 | |
| Oggi h: 08:30 | Sereno | 17 | 13 | 77 | 1020 | 10 | S 11.1 | |
| Oggi h: 08:00 | Sereno | 16 | 13 | 82 | 1020 | 10 | S 13 | |



